St. Cloud, MN

9:33 AM CDT on June 20, 2018 (GMT -0500)
Saint Cloud Regional

Weather History for KSTC - October, 2017

Change the Weather History Date:

Thursday, October 5, 2017

  Actual Average Record
Temperature  
Mean Temperature 53 °F 50 °F  
Max Temperature 61 °F 62 °F 89 °F (1947)
Min Temperature 44 °F 39 °F 20 °F (1952)
Degree Days  
Heating Degree Days 12 15  
Month to date heating degree days 55 71  
Since 1 July heating degree days 234 357  
Cooling Degree Days 0 0  
Month to date cooling degree days 0 0  
Year to date cooling degree days 361 463  
Growing Degree Days 2 (Base 50)    
Moisture  
Dew Point 49 °F    
Average Humidity 82    
Maximum Humidity 100    
Minimum Humidity 64    
Precipitation  
Precipitation 0.00 in 0.10 in 1.08 in (1893)
Month to date precipitation 3.37 0.50  
Year to date precipitation 27.23 23.54  
Snow  
Snow 0.00 in 0.00 in T in (1952)
Month to date snowfall 0.0 0.0  
Since 1 July snowfall 0.0 T  
Since 1 September snowfall 0.0 T  
Snow Depth 0.00 in    
Sea Level Pressure  
Sea Level Pressure 30.16 in    
Wind  
Wind Speed 2 mph (SSW)    
Max Wind Speed 7 mph    
Max Gust Speed 9 mph    
Visibility 10 miles    
Events      
T = Trace of Precipitation, MM = Missing Value Source: NWS Daily Summary

Daily Weather History Graph

Daily Weather History Graph

Search for Another Location

Airport or City:

Astronomy

Oct. 05, 2017 Rise Set
Actual Time 7:19 AM CDT 6:48 PM CDT
Civil Twilight 6:50 AM CDT 7:17 PM CDT
Nautical Twilight 6:15 AM CDT 7:52 PM CDT
Astronomical Twilight 5:41 AM CDT 8:26 PM CDT
Moon 7:12 PM CDT (10/5) 6:56 AM CDT (10/5)
Length of Visible Light 12h 27m
Length of Day
11h 28m
Full, 100% of the Moon is Illuminated
Oct 5
Full
Oct 5
Full
Oct 12
Last Quarter
Oct 19
New
Oct 27
First Quarter

Hourly Weather History & Observations

Time (CDT) Temp. Dew Point Humidity Pressure Visibility Wind Dir Wind Speed Gust Speed Precip Events Conditions
12:53 AM 44.1 °F 43.0 °F 96% 30.26 in 10.0 mi Calm Calm - N/A   Scattered Clouds
1:53 AM 46.9 °F 45.0 °F 93% 30.25 in 10.0 mi SSW 4.6 mph - N/A   Overcast
2:53 AM 48.0 °F 45.0 °F 89% 30.24 in 10.0 mi Calm Calm - N/A   Overcast
3:53 AM 48.0 °F 46.0 °F 93% 30.22 in 10.0 mi South 3.5 mph - N/A   Overcast
4:53 AM 50.0 °F 48.0 °F 93% 30.22 in 10.0 mi Calm Calm - N/A   Overcast
5:53 AM 50.0 °F 48.0 °F 93% 30.20 in 10.0 mi Calm Calm - N/A   Overcast
6:53 AM 48.9 °F 48.0 °F 97% 30.20 in 10.0 mi South 3.5 mph - N/A   Overcast
7:53 AM 51.1 °F 48.9 °F 92% 30.19 in 10.0 mi Calm Calm - N/A   Overcast
8:53 AM 52.0 °F 50.0 °F 93% 30.19 in 10.0 mi SSE 5.8 mph - N/A   Overcast
9:53 AM 53.1 °F 48.9 °F 86% 30.18 in 10.0 mi Calm Calm - N/A   Overcast
10:53 AM 55.0 °F 50.0 °F 83% 30.19 in 10.0 mi North 3.5 mph - N/A   Overcast
11:53 AM 57.0 °F 48.9 °F 74% 30.17 in 10.0 mi Calm Calm - N/A   Overcast
12:53 PM 57.9 °F 50.0 °F 75% 30.17 in 10.0 mi Calm Calm - N/A   Overcast
1:53 PM 60.1 °F 51.1 °F 72% 30.12 in 10.0 mi Calm Calm - N/A   Overcast
3:53 PM 60.1 °F 50.0 °F 69% 30.10 in 10.0 mi SSE 4.6 mph - N/A   Overcast
4:53 PM 60.1 °F 48.9 °F 67% 30.09 in 10.0 mi WSW 4.6 mph - N/A   Overcast
6:53 PM 57.0 °F 53.1 °F 87% 30.10 in 10.0 mi SSW 3.5 mph - N/A   Overcast
7:53 PM 57.0 °F 53.1 °F 87% 30.10 in 10.0 mi WSW 3.5 mph - N/A   Overcast
8:53 PM 55.9 °F 53.1 °F 90% 30.11 in 10.0 mi Calm Calm - N/A   Overcast
9:53 PM 54.0 °F 54.0 °F 100% 30.11 in 10.0 mi Calm Calm - N/A   Overcast
10:53 PM 54.0 °F 54.0 °F 100% 30.10 in 10.0 mi Calm Calm - N/A   Overcast
11:53 PM 51.1 °F 51.1 °F 100% 30.10 in 5.0 mi Calm Calm - N/A   Partly Cloudy